Regional Weather Roundup
Issued by NWS Green Bay, WI

Home | Current Version | Previous Version | Text Only | Print | Product List | Glossary On
Versions: 1 2 3 4 5 6 7 8 9 10 11 12 13 14 15 16 17 18 19 20 21 22 23 24 25 26 27 28 29 30 31 32 33 34 35 36 37 38 39 40 41 42 43 44 45 46 47 48 49 50
000
ASUS43 KGRB 192000
RWRGRB

NORTH-CENTRAL AND NORTHEAST WISCONSIN REGIONAL WEATHER ROUNDUP
NATIONAL WEATHER SERVICE GREEN BAY WI
200 PM CST SUN FEB 19 2017

WIZ005-009-010>012-018-019-192100-
NORTH CENTRAL WISCONSIN

CITY           SKY/WX    TMP DP  RH WIND       PRES   REMARKS
IRONWOOD       MOSUNNY   54  27  35 E5        29.98S
MANITOWISH WTR NOT AVBL
ARBOR VITAE    NOT AVBL
EAGLE RIVER    NOT AVBL
LAND O LAKES   MOSUNNY   53  23  31 CALM      30.00S
RHINELANDER    MOSUNNY   56  27  32 NW3       30.00R
PHILLIPS       CLOUDY    57  28  32 S5        29.98R
ANTIGO         NOT AVBL
TOMAHAWK       NOT AVBL
MERRILL        NOT AVBL
$$

WIZ013-073-192100-
NORTHEAST WISCONSIN

CITY           SKY/WX    TMP DP  RH WIND       PRES   REMARKS
IRON MOUNTAIN  MOSUNNY   51  29  42 CALM      30.00F
MARINETTE      MOSUNNY   49  32  52 SE8       30.05S
OCONTO         MOSUNNY   50  31  47 SE6       30.03S
$$

WIZ017-030-035>037-045-192100-
CENTRAL WISCONSIN

CITY           SKY/WX    TMP DP  RH WIND       PRES   REMARKS
MEDFORD        NOT AVBL
WAUSAU         SUNNY     56  30  37 S3        29.99S
MOSINEE        PTSUNNY   54  32  43 S8        30.01F
MARSHFIELD     SUNNY     53  32  44 SE6       29.99S
WISC RAPIDS    CLOUDY    61  33  35 SW6       30.01F
STEVENS POINT  NOT AVBL
WAUPACA        SUNNY     59  31  33 CALM      30.02F
SHAWANO        NOT AVBL
CLINTONVILLE   CLOUDY    55  32  41 S6        30.03S
WAUTOMA        SUNNY     60  34  37 S9        30.02S
$$

WIZ038-039-048-051-192100-
FOX VALLEY

CITY           SKY/WX    TMP DP  RH WIND       PRES   REMARKS
NWS GREEN BAY  SUNNY     56  38  50 S8        30.03S
APPLETON       MOSUNNY   55  30  38 SE6       30.02S
OSHKOSH        SUNNY     58  36  43 S6        30.03S
FOND DU LAC    SUNNY     59  32  36 S8        30.03S
$$

WIZ022-050-052-192100-
EAST CENTRAL WISCONSIN

CITY           SKY/WX    TMP DP  RH WIND       PRES   REMARKS
EPHRAIM        NOT AVBL
WASHINGTON ISL FAIR      46  32  56 S3        30.05S
STURGEON BAY   SUNNY     50  32  50 E7        30.05S
MANITOWOC      NOT AVBL
SHEBOYGAN      SUNNY     55  34  45 SE8       30.04S
$$

LMZ563-521-522-541>543-192100-
LAKESHORE

STATION/POSITION TIME  TEMP    WIND        PRES    VSBY  WAVE
                       AIR SEA DIR/SP/G                  HT/PER
                 (UTC) (F)     (DEG/KT/KT) (MB)    (MI)  (FT/S)
SHEBOYGAN LKSHOR 1900   46      70/  6/  6 1017.7S
KEWAUNEE LKSHORE 1930   45     120/  2/  6 1017.1S
NORTHPORT PIER   1940   41        CALM     1017.6S
SISTER BAY LKSHO 1905   52        CALM       N/A
CHAMBERS ISLAND  1940   45      CALM  /  4 1017.3R
MENOMINEE LKSHOR 1930   41     110/  5/  5 1016.4F
$$



USA.gov is the U.S. government's official web portal to all federal, state and local government web resources and services.